• MPC Preparation (Info)

  • MPEC 2015-G41 : 2015 GY

    The following Minor Planet Electronic Circular may be linked-to from your own Web pages, but must not otherwise be redistributed electronically.

    A form allowing access to any MPEC is at the bottom of this page.


    Read MPEC 2015-G40 Read MPEC 2015-G42


    M.P.E.C. 2015-G41                                Issued 2015 Apr. 12, 14:07 UT
    
         The Minor Planet Electronic Circulars contain information on unusual
             minor planets and routine data on comets.  They are published
       on behalf of Commission 20 of the International Astronomical Union by the
              Minor Planet Center, Smithsonian Astrophysical Observatory,
                              Cambridge, MA 02138, U.S.A.
    
                 Prepared using the Tamkin Foundation Computer Network
    
                                  MPC@CFA.HARVARD.EDU
                URL https://www.minorplanetcenter.net/    ISSN 1523-6714
    
                                        2015 GY
    
    Observations:
         K15G00Y* C2015 04 10.35087 11 37 10.619-15 46 47.63         18.6 wLEG041F51
         K15G00Y  C2015 04 10.36149 11 37 08.833-15 45 55.58         18.7 wLEG041F51
         K15G00Y  C2015 04 10.37213 11 37 07.062-15 45 03.08         18.7 wLEG041F51
         K15G00Y  C2015 04 10.38276 11 37 05.276-15 44 10.59         18.7 wLEG041F51
         K15G00Y KC2015 04 10.87785 11 35 55.21 -15 03 26.7          19.2 VqEG041C43
         K15G00Y KC2015 04 10.88043 11 35 54.84 -15 03 14.0          19.2 VqEG041C43
         K15G00Y KC2015 04 10.88318 11 35 54.47 -15 02 59.2          19.1 VqEG041C43
         K15G00Y KC2015 04 10.89020 11 35 54.07 -15 02 24.0                qEG041J95
         K15G00Y KC2015 04 10.89450 11 35 53.38 -15 02 01.6                qEG041J95
         K15G00Y KC2015 04 10.89875 11 35 52.74 -15 01 41.0          18.3 RqEG041J95
         K15G00Y |C2015 04 11.03323 11 35 34.99 -14 49 08.8          18.6 VuEG041807
         K15G00Y |C2015 04 11.03624 11 35 34.51 -14 48 53.6          18.4 VuEG041807
         K15G00Y |C2015 04 11.03909 11 35 34.03 -14 48 39.3          18.8 VuEG041807
         K15G00Y  C2015 04 11.04696211 35 32.78 -14 47 59.6          18.2 RtEG041W86
         K15G00Y  C2015 04 11.04788211 35 32.65 -14 47 55.2          18.2 RtEG041W86
         K15G00Y  C2015 04 11.04880611 35 32.48 -14 47 50.4          18.2 RtEG041W86
         K15G00Y  C2015 04 11.05066011 35 32.18 -14 47 41.0          18.3 RtEG041W86
         K15G00Y  C2015 04 11.05159911 35 32.03 -14 47 36.3          18.2 RtEG041W86
         K15G00Y  C2015 04 11.05344111 35 31.72 -14 47 27.1          18.2 RtEG041W86
         K15G00Y  C2015 04 11.05439911 35 31.57 -14 47 22.2          18.3 RtEG041W86
         K15G00Y  C2015 04 11.05625111 35 31.27 -14 47 13.1          18.2 RtEG041W86
         K15G00Y  C2015 04 11.05810611 35 30.96 -14 47 03.5          18.3 RtEG041W86
         K15G00Y  C2015 04 11.05902911 35 30.81 -14 46 58.9          18.2 RtEG041W86
         K15G00Y  C2015 04 11.12407 11 35 22.38 -14 42 28.0          18.7 RqEG041G48
         K15G00Y  C2015 04 11.12591 11 35 21.97 -14 42 18.8          18.4 RqEG041G48
         K15G00Y  C2015 04 11.12684 11 35 21.82 -14 42 13.9          18.0 RqEG041G48
         K15G00Y  C2015 04 11.15080 11 35 18.14 -14 40 13.5          18.9 RoEG041926
         K15G00Y  C2015 04 11.15549 11 35 17.38 -14 39 49.8          18.4 RoEG041926
         K15G00Y  C2015 04 11.16019 11 35 16.62 -14 39 25.6          18.7 RoEG041926
         K15G00Y  C2015 04 11.21425 11 35 07.76 -14 34 52.3          18.7 RoEG041926
         K15G00Y  C2015 04 11.21888 11 35 06.99 -14 34 28.5          18.5 RoEG041926
         K15G00Y  C2015 04 11.22351 11 35 06.20 -14 34 05.3          18.8 RoEG041926
         K15G00Y  C2015 04 11.53293 11 34 22.47 -14 07 41.2          19.0 RoEG041300
         K15G00Y  C2015 04 11.53720 11 34 21.78 -14 07 20.2          19.1 RoEG041300
         K15G00Y  C2015 04 11.53930 11 34 21.50 -14 07 09.0          19.0 RoEG041300
         K15G00Y  C2015 04 11.56340 11 34 17.41 -14 05 04.6          18.6 VqEG041900
         K15G00Y  C2015 04 11.57412 11 34 15.52 -14 04 09.2          18.6 VqEG041900
         K15G00Y KC2015 04 11.90295 11 33 29.15 -13 35 48.5          18.1 VtEG041595
         K15G00Y KC2015 04 11.90580 11 33 28.92 -13 35 33.9                tEG041204
         K15G00Y KC2015 04 11.91210 11 33 27.90 -13 35 00.8                tEG041204
         K15G00Y KC2015 04 11.91823 11 33 26.91 -13 34 28.9          18.4 RtEG041204
         K15G00Y KC2015 04 11.92860 11 33 25.03 -13 33 34.0          18.1 VtEG041595
         K15G00Y |C2015 04 12.13256 11 32 56.60 -13 14 32.6          18.6 VuEG041807
         K15G00Y |C2015 04 12.13649 11 32 55.96 -13 14 12.1          18.6 VuEG041807
         K15G00Y |C2015 04 12.14031 11 32 55.32 -13 13 51.9          18.8 VuEG041807
         K15G00Y KC2015 04 12.45052 11 32 13.06 -12 46 23.3          18.3 VoEG041E23
         K15G00Y KC2015 04 12.45729 11 32 11.97 -12 45 47.2          18.7 VoEG041E23
         K15G00Y KC2015 04 12.46441 11 32 10.71 -12 45 09.5                oEG041E23
    
    Observer details:
    204 Schiaparelli Observatory.  Observer L. Buzzi.  0.60-m f/4.64 reflector
        + CCD.
    300 Bisei Spaceguard Center--BATTeRS.  Observers A. Asami, N. Hashimoto.
        1.0-m f/3.0 reflector + CCD.
    595 Farra d'Isonzo.  Observer E. Pettarin.  0.61-m f/4.0 reflector + CCD.
    807 Cerro Tololo.  Observers T. Linder, R. Holmes.  0.41-m f/11
        Ritchey-Chretien + CCD.
    900 Moriyama.  Observer Y. Ikari.  0.26-m f/7.0 reflector + CCD.
    926 Tenagra II Observatory.  Observers M. Schwartz, P. R. Holvorcem.  Measurer
        M. Schwartz.  0.41-m f/3.75 astrograph + CCD.
    C43 Hoyerswerda.  Observer P. Lindner.  0.30-m f/6.3 Schmidt-Cassegrain + CCD.
    E23 Arcadia.  Observer A. Hidas.
    F51 Pan-STARRS 1, Haleakala.  Observers R. Anderson, B. Gibson, T. Goggia,
        N. Primak, A. Schultz, M. Willman.  Measurers K. Chambers, S. Chastel,
        L. Denneau, H. Flewelling, M. Huber, E. Magnier, E. Schunova, R. Wainscoat,
        C. Waters, R. Weryk.  1.8-m Ritchey-Chretien + CCD.
    G48 Doc Greiner Research Obs., Rancho Hildalgo.  Observer M. Mills.  0.4-m
        f/10 Schmidt-Cassegrain + CCD.
    J95 Great Shefford.  Observer P. Birtwhistle.  0.40-m f/6.0 Schmidt-Cassegrain
        + CCD.
    W86 Cerro Tololo-LCOGT B.  Observer T. Lister.  1.0-m f/8 Ritchey-Chretien
        + CCD.
    
    Orbital elements:
    2015 GY                                             PHA, Earth MOID = 0.0222 AU
    Epoch 2015 June 27.0 TT = JDT 2457200.5                 MPC
    M 332.01314              (2000.0)            P               Q
    n   0.89263455     Peri.  108.54367     +0.71408116     +0.69350936
    a   1.0682845      Node   207.79757     -0.69434685     +0.68421144
    e   0.2005536      Incl.   11.82504     -0.08927789     +0.22560911
    P   1.10           H   21.6           G   0.15           U   7
    Residuals in seconds of arc
    150410 F51  0.0   0.1+    150411 W86  0.0   0.2+    150411 300  0.4+  0.6+
    150410 F51  0.1-  0.1-    150411 W86  0.0   0.2+    150411 300  0.5+  0.4-
    150410 F51  0.0   0.0     150411 W86  0.1-  0.1+    150411 300  1.4+  0.0
    150410 F51  0.1-  0.0     150411 W86  0.0   0.2+    150411 900  1.6+  0.4+
    150410 C43  1.6-  0.6-    150411 W86  0.0   0.0     150411 900  0.3-  0.4+
    150410 C43  1.0-  0.8-    150411 W86  0.1-  0.3+    150411 595  0.2+  0.1+
    150410 C43  0.0   0.1+    150411 W86  0.1-  0.2+    150411 204  0.0   0.1-
    150410 J95  0.0   0.3-    150411 G48  1.1+  0.2+    150411 204  0.1-  0.0
    150410 J95  0.1-  0.5+    150411 G48  0.6-  0.2+    150411 204  0.2-  0.1-
    150410 J95  0.4+  0.2-    150411 G48  0.6-  0.4+    150411 595  0.1+  0.3+
    150411 807  0.2-  0.2-    150411 926  0.3+  0.4-    150412 807  0.3-  0.0
    150411 807  0.1-  0.1-    150411 926  0.3+  0.3-    150412 807  0.1-  0.2-
    150411 807  0.4-  0.1-    150411 926  0.3+  0.2+    150412 807  0.3-  0.2-
    150411 W86  0.0   0.1+    150411 926  0.2+  0.1-    150412 E23  0.0   0.2-
    150411 W86  0.3+  0.1-    150411 926  0.1+  0.2+    150412 E23  0.1+  0.0
    150411 W86  0.0   0.1+    150411 926  0.3-  0.1-    150412 E23  1.3-  0.1-
    
    Ephemeris:
    2015 GY                  a,e,i = 1.07, 0.20, 12                  q = 0.8540
    Date    TT    R. A. (2000) Decl.     Delta      r     Elong.  Phase     V
    2015 03 13    12 30 49.6 -34 34 39   0.2669  1.2094   139.6    32.2    20.5
    ...
    2015 03 28    12 07 31.4 -29 05 13   0.1923  1.1729   153.3    22.5    19.4
    ...
    2015 04 05    11 49 50.4 -22 16 47   0.1614  1.1508   157.4    19.5    18.9
    ...
    2015 04 11    11 35 37.8 -14 52 19   0.1437  1.1333   154.5    22.4    18.7
    2015 04 12    11 33 15.7 -13 26 31   0.1412  1.1303   153.4    23.4    18.7
    2015 04 13    11 30 54.5 -11 57 34   0.1389  1.1272   152.2    24.5    18.7
    ...
    2015 04 19    11 17 19.8 -02 06 54   0.1286  1.1086   142.2    33.7    18.8
    ...
    2015 04 27    11 01 47.4 +12 21 39   0.1239  1.0829   125.4    49.2    19.1
    ...
    2015 05 12    10 41 19.0 +36 55 38   0.1357  1.0325    95.7    76.8    20.0
    
    A. U. Tomatic                (C) Copyright 2015 MPC           M.P.E.C. 2015-G41
    

    Read MPEC 2015-G40 Read MPEC 2015-G42


    MPEC number:

    Enter an MPEC number in one of the following forms:

    • 1997-B01 (the full form)
    • J97B01 (the packed version of the full form)
    • B01 (the abbreviated form)